This demonstration page uses our WeatherBlox Daily Observations layout. Learn more.

Left ArrowRight Arrow

53.62937, 11.41316

Hourly Observations for September 27, 2021

Temp ( °F °C ) Dew Point ( °F °C ) Humidity (%) Winds ( mph kmh ) Pressure ( in mb ) Visibility ( mi km ) Precip ( " mm )
6:20 am 06:20 Mostly Cloudy with Light Rain 61 16 61 16 100 100 VRB 1 2 29.97 1015 2 3 N/A
6:50 am 06:50 Partly Cloudy with Light Rain 61 16 61 16 100 100 VRB 1 2 29.97 1015 2 3 N/A
7:20 am 07:20 Mostly Cloudy with Light Rain 63 17 63 17 100 100 VRB 2 4 29.97 1015 4 6 N/A
7:50 am 07:50 Mostly Cloudy with Drizzle 63 17 63 17 100 100 SE 5 7 29.97 1015 4 6 N/A
8:20 am 08:20 Mostly Cloudy 63 17 63 17 100 100 SSE 3 6 29.94 1014 4 6 N/A
8:50 am 08:50 Mostly Cloudy with Mist and Fog 63 17 63 17 100 100 SE 5 7 29.97 1015 2 4 N/A
9:20 am 09:20 Mostly Cloudy with Mist and Fog 63 17 63 17 100 100 SE 5 7 29.97 1015 2 4 N/A
9:50 am 09:50 Mostly Cloudy with Mist and Fog 63 17 63 17 100 100 SSE 6 9 29.97 1015 2 4 N/A
10:20 am 10:20 Cloudy with Mist and Fog 63 17 63 17 100 100 SE 6 9 29.97 1015 2 4 N/A
10:50 am 10:50 Cloudy with Mist and Fog 63 17 63 17 100 100 SSE 6 9 29.97 1015 2 4 N/A
11:20 am 11:20 Mostly Cloudy with Drizzle 63 17 63 17 100 100 SE 6 9 29.97 1015 2 3 N/A
11:50 am 11:50 Mostly Cloudy 64 18 64 18 100 100 SE 5 7 29.97 1015 4 6 N/A
12:20 pm 12:20 Mostly Cloudy 64 18 64 18 100 100 SSE 3 6 29.97 1015 30 48 N/A
12:50 pm 12:50 Mostly Cloudy 64 18 64 18 100 100 SE 5 7 29.97 1015 30 48 N/A
1:20 pm 13:20 Mostly Cloudy 64 18 64 18 100 100 VRB 5 7 29.97 1015 30 48 N/A
1:50 pm 13:50 Mostly Cloudy 68 20 64 18 88 88 SSE 5 7 29.97 1015 30 48 N/A
2:20 pm 14:20 Partly Cloudy 68 20 64 18 88 88 SE 6 9 29.94 1014 30 48 N/A
2:50 pm 14:50 Partly Cloudy 70 21 64 18 83 83 SE 7 11 29.94 1014 30 48 N/A
3:20 pm 15:20 Partly Cloudy 68 20 64 18 88 88 SE 6 9 29.94 1014 30 48 N/A
3:50 pm 15:50 Partly Cloudy 70 21 64 18 83 83 SE 6 9 29.94 1014 30 48 N/A
4:20 pm 16:20 Partly Cloudy 70 21 64 18 83 83 SE 6 9 29.94 1014 30 48 N/A
4:50 pm 16:50 Partly Cloudy 68 20 64 18 88 88 SE 5 7 29.94 1014 30 48 N/A
5:20 pm 17:20 Partly Cloudy 70 21 64 18 83 83 SSE 5 7 29.94 1014 30 48 N/A
5:50 pm 17:50 Mostly Sunny 68 20 64 18 88 88 SSE 5 7 29.94 1014 30 48 N/A
6:20 pm 18:20 Mostly Sunny 68 20 64 18 88 88 SE 3 6 29.94 1014 30 48 N/A
6:50 pm 18:50 Mostly Sunny 66 19 63 17 88 88 VRB 2 4 29.94 1014 7 11 N/A
7:20 pm 19:20 Partly Cloudy 66 19 61 16 83 83 S 3 6 29.94 1014 30 48 N/A
7:50 pm 19:50 Mostly Clear 66 19 61 16 83 83 S 5 7 29.94 1014 30 48 N/A
8:20 pm 20:20 Mostly Clear 64 18 61 16 88 88 VRB 2 4 29.94 1014 7 11 N/A
8:50 pm 20:50 Mostly Clear 64 18 61 16 88 88 S 3 6 29.97 1015 7 11 N/A
9:20 pm 21:20 Mostly Clear 64 18 61 16 88 88 SSE 3 6 29.97 1015 7 11 N/A
9:50 pm 21:50 Mostly Clear 64 18 59 15 83 83 S 3 6 29.97 1015 30 48 N/A

Powered by AerisWeather